GHURI EGCM-EGSU

Flight info

Callsign GHURI
Flight time N/A
Altitude 21000
Route GOLES
Aircraft HURI/M-SDFIRWY/C

Departure

Time 2026-04-17 14:54
Airport Leeds East Airport (EGCM)

Arrival

Time N/A
Airport Duxford Aerodrome (EGSU)
Time Latitude Longitude Altitude Speed Heading
2026-04-17 14:41 53.83501 -1.19838 35 ft 0 kts 28°
2026-04-17 14:50 53.83521 -1.19828 35 ft 6 kts 335°
2026-04-17 14:50 53.83554 -1.19863 35 ft 6 kts 19°
2026-04-17 14:50 53.83590 -1.19839 35 ft 5 kts 19°
2026-04-17 14:51 53.83623 -1.19823 35 ft 5 kts 14°
2026-04-17 14:51 53.83660 -1.19805 34 ft 7 kts 25°
2026-04-17 14:51 53.83696 -1.19728 33 ft 8 kts 124°
2026-04-17 14:51 53.83681 -1.19714 33 ft 0 kts 185°
2026-04-17 14:52 53.83679 -1.19714 33 ft 2 kts 185°
2026-04-17 14:52 53.83653 -1.19699 32 ft 7 kts 154°
2026-04-17 14:52 53.83575 -1.19640 33 ft 16 kts 158°
2026-04-17 14:52 53.83463 -1.19567 34 ft 12 kts 160°
2026-04-17 14:53 53.83428 -1.19601 35 ft 2 kts 235°
2026-04-17 14:53 53.83425 -1.19608 35 ft 0 kts 235°
2026-04-17 14:53 53.83301 -1.19904 37 ft 66 kts 239°
2026-04-17 14:53 53.82989 -1.20645 286 ft 83 kts 230°
2026-04-17 14:54 53.82560 -1.21505 575 ft 107 kts 224°
2026-04-17 14:54 53.81888 -1.22264 827 ft 131 kts 204°
2026-04-17 14:54 53.80951 -1.22682 1121 ft 147 kts 185°
2026-04-17 14:54 53.79822 -1.22598 1060 ft 178 kts 169°
2026-04-17 14:55 53.78652 -1.21944 1093 ft 173 kts 154°
2026-04-17 14:55 53.77696 -1.20884 1152 ft 157 kts 139°
2026-04-17 14:55 53.76994 -1.19563 1229 ft 144 kts 128°
2026-04-17 14:55 53.76423 -1.18257 1301 ft 133 kts 125°
2026-04-17 14:56 53.75913 -1.17007 1373 ft 127 kts 124°
2026-04-17 14:56 53.75427 -1.15781 1443 ft 124 kts 124°
2026-04-17 14:56 53.74953 -1.14569 1513 ft 122 kts 123°
2026-04-17 14:56 53.74481 -1.13371 1553 ft 121 kts 126°
2026-04-17 14:57 53.73820 -1.12610 1650 ft 116 kts 167°
2026-04-17 14:57 53.72991 -1.12675 1530 ft 128 kts 185°
2026-04-17 14:57 53.72151 -1.13111 1539 ft 142 kts 207°
2026-04-17 14:57 53.71229 -1.13647 1746 ft 165 kts 186°